Regional Weather Roundup
Issued by NWS

Home | Current Version | Previous Version | Graphics & Text | Print | Product List | Glossary On
Versions: 1 2 3 4 5 6 7 8 9 10 11 12 13 14 15 16 17 18 19 20 21 22 23 24 25 26 27 28 29 30 31 32 33 34 35 36 37 38 39 40 41 42 43 44 45 46 47 48 49 50
000
ASUS43 KMKX 171059
RWRWI

WISCONSIN REGIONAL WEATHER ROUNDUP
NATIONAL WEATHER SERVICE MILWAUKEE/SULLIVAN WI
500 AM CST SUN DEC 17 2017

NOTE: "FAIR" INDICATES FEW OR NO CLOUDS BELOW 12,000 FEET WITH NO
SIGNIFICANT WEATHER AND/OR OBSTRUCTIONS TO VISIBILITY.

WIZ001-002-006>008-014>016-023>028-171200-
NORTHWEST WISCONSIN

CITY           SKY/WX    TMP DP  RH WIND       PRES   REMARKS
SUPERIOR ARPT  CLOUDY    21  17  82 S3        30.14R
ASHLAND        CLOUDY    21  16  81 S3        30.14S
HAYWARD        FOG       22  20  92 CALM      30.10F VSB 3/4
SIREN          CLOUDY    17  15  93 CALM      30.11F
CUMBERLAND     CLOUDY    23  21  93 CALM      30.10R FOG
RICE LAKE      CLOUDY    24  22  93 CALM      30.12R
CHETEK         CLOUDY    23  21  91 E3        30.10S
LADYSMITH      CLOUDY    24  22  92 E5        30.11F WCI  18
EAU CLAIRE     NOT AVBL
MENOMONIE      CLOUDY    26  24  92 E5        30.11S WCI  20
NEW RICHMOND   CLOUDY    23  22  96 E6        30.09F FOG     WCI  16
OSCEOLA        CLOUDY    21  21 100 CALM      30.13F
$$

WIZ003>005-009-010-017-018-171200-
NORTH CENTRAL WISCONSIN

CITY           SKY/WX    TMP DP  RH WIND       PRES   REMARKS
MANITOWISH WTR CLOUDY    20  20 100 SE5       30.10F FOG     WCI  13
ARBOR VITAE    CLOUDY    22  20  93 SE3       30.09F FOG
WOODRUFF       CLOUDY    22  20  93 SE3       30.09F FOG
RHINELANDER    CLOUDY    21  20  96 E7        30.11S FOG     WCI  12
EAGLE RIVER    CLOUDY    19  18  98 E5        30.09F FOG     WCI  12
LAND O LAKES   CLOUDY    19  17  95 SE5       30.12S WCI  12
PHILLIPS       CLOUDY    21  21 100 CALM      30.09F
TOMAHAWK       CLOUDY    21  20  93 CALM      30.12S
MEDFORD        CLOUDY    22  19  90 E5        30.08S WCI  16
MERRILL        CLOUDY    22  21  96 CALM      30.11F
$$

WIZ029-030-035-036-043>047-171200-
CENTRAL WISCONSIN

CITY           SKY/WX    TMP DP  RH WIND       PRES   REMARKS
WAUSAU         CLOUDY    22  20  92 E6        30.11R WCI  14
MOSINEE        CLOUDY    23  21  93 E6        30.13R WCI  16
MARSHFIELD     CLOUDY    23  20  88 E9        30.09S WCI  13
STEVENS POINT  CLOUDY    22  21  97 E5        30.13S WCI  15
WAUPACA        CLOUDY    27  22  83 NE5       30.14F WCI  21
WAUTOMA        CLOUDY    25  22  88 NE7       30.13F WCI  17
WISC RAPIDS    CLOUDY    24  19  81 E8        30.13S WCI  15
CAMP DOUGLAS   CLOUDY   N/A N/A N/A E5        30.11S
$$

WIZ011>013-019>022-031-037>040-048>050-171200-
NORTHEAST WISCONSIN

CITY           SKY/WX    TMP DP  RH WIND       PRES   REMARKS
ANTIGO         CLOUDY    20  20  98 E6        30.12R WCI  12
SHAWANO        CLOUDY    23  20  88 NE7       30.16S WCI  15
OCONTO         CLOUDY    22  19  89 N5        30.18R WCI  15
STURGEON BAY   CLOUDY    28  24  85 E5        30.18R WCI  23
GREEN BAY      CLOUDY    28  23  81 NE8       30.15S WCI  20
MANITOWOC      CLOUDY    30  27  88 NE6       30.14F WCI  24
APPLETON       CLOUDY    27  21  80 N7        30.12F WCI  19
CLINTONVILLE   NOT AVBL
OSHKOSH        CLOUDY    29  25  85 NE8       30.12S WCI  21
$$

WIZ032>034-041-042-053>061-171200-
SOUTHWEST WISCONSIN

CITY           SKY/WX    TMP DP  RH WIND       PRES   REMARKS
LA CROSSE      CLOUDY    30  26  85 E6        30.09F WCI  24
SPARTA         CLOUDY    27  24  88 E6        30.11S WCI  20
VIROQUA        CLOUDY    27  27 100 CALM      30.06S
BOSCOBEL       CLOUDY    32  28  85 E3        30.08F
PRAIRIE DU CHI CLOUDY    31  27  84 E3        30.07F
PLATTEVILLE    CLOUDY    32  32 100 E10       30.05F WCI  23
$$

WIZ056-057-062-063-064-067-068-171200-
SOUTH CENTRAL WISCONSIN

CITY           SKY/WX    TMP DP  RH WIND       PRES   REMARKS
REEDSBURG      CLOUDY    27  27  98 NE5       30.10R WCI  22
BARABOO/DELLS  CLOUDY    27  24  89 NE5       30.10R WCI  22
LONE ROCK      NOT AVBL
MINERAL POINT  CLOUDY    32  32 100 E9        30.06R FOG     WCI  24
MADISON        CLOUDY    32  29  88 E8        30.10R WCI  25
MIDDLETON      CLOUDY    33  31  93 E8        30.09R WCI  26
WATERTOWN      CLOUDY    32  31  98 E9        30.09S WCI  24
MONROE         CLOUDY    32  32 100 E9        30.06R FOG     WCI  24
JANESVILLE     CLOUDY    34  34 100 E12       30.08R FOG     WCI  25
$$

WIZ051-052-058>065-066-070>072-171200-
SOUTHEAST WISCONSIN

CITY           SKY/WX    TMP DP  RH WIND       PRES   REMARKS
MILWAUKEE      CLOUDY    35  31  85 E9        30.11R WCI  28
WAUKESHA       CLOUDY    30  28  93 E6        30.10S WCI  24
MILWAUKEE/TIMM CLOUDY    32  28  86 NE6       30.11S WCI  26
RACINE         CLOUDY    34  31  88 E8        30.12R WCI  27
BURLINGTON     CLOUDY    50  50 100 E7        30.09S
KENOSHA        CLOUDY    35  31  85 E8        30.10R WCI  29
FOND DU LAC    CLOUDY    30  26  85 NE5       30.13R WCI  25
SHEBOYGAN      CLOUDY    31  28  89 E6        30.13R WCI  25
WEST BEND      CLOUDY    32  30  93 E6        30.10S WCI  26
JUNEAU         CLOUDY    30  28  91 E7        30.11R WCI  23
$$

LSZ147-162-171200-
LAKE SUPERIOR

STATION/POSITION TIME  TEMP    WIND        PRES    WAVE
                       AIR SEA DIR/SP/G            HT/PER
                 (UTC) (F)     (DEG/KT/KT) (MB)    (FT/S)
DEVILS ISLAND    1000   26     220/  8/ 11 1020.9F
SAXON HARBOR     1040   24                 1020.3S
$$

LMZ867-665-643>646-171200-
LAKE MICHIGAN

STATION/POSITION TIME  TEMP    WIND        PRES    WAVE
                       AIR SEA DIR/SP/G            HT/PER
                 (UTC) (F)     (DEG/KT/KT) (MB)    (FT/S)
NORTHPORT PIER   1040   28      90/ 14/ 17 1021.3F
KEWAUNEE LAKESHO 1030   30     100/  7/ 10 1020.7R
SHEBOYGAN LAKESH 1000   32      90/ 11/ 11 1020.9R
PORT WASHINGTON  1040   33      80/  9/ 12 1021.0R
MILWAUKEE LAKESH 1030   34      80/ 12/ 14   N/A
KENOSHA   LAKESH 1000   35      70/ 10/ 13 1019.3
$$

TC  - TEMPERATURE IN CELSIUS
VSB - VISIBILITY IN STATUTE MILES
WCI - WIND CHILL INDEX
HX  - HEAT INDEX





USA.gov is the U.S. government's official web portal to all federal, state and local government web resources and services.